FM-5

Last updated on Thu Oct 30 2025 00:02:48 GMT+0000 (Coordinated Universal Time)

1 35493U 09034A 25302.45525137 -.00000190 00000+0 00000+0 0 9993 2 35493 0.0205 267.2835 0000575 212.0153 356.5177 1.00270520 44332
UTC large
Height (km)
Speed (km/s)
/
Latitude / Longitude
Inclination (degrees)
Orbital Period (minutes)
Azimuth
Elevation
Range (km)
Doppler Factor

Next 0 passes for location: London (51.5072 / 0.1276)

Sorry there are no passes over London.